Regional Weather Roundup
Issued by NWS

Home | Current Version | Previous Version | Graphics & Text | Print | Product List | Glossary On
Versions: 1 2 3 4 5 6 7 8 9 10 11 12 13 14 15 16 17 18 19 20 21 22 23 24 25 26 27 28 29 30 31 32 33 34 35 36 37 38 39 40 41 42 43 44 45 46 47 48 49 50
000
ASUS43 KLMK 031702
RWRKY
KENTUCKY REGIONAL WEATHER ROUNDUP
NATIONAL WEATHER SERVICE LOUISVILLE KY
1200 PM EST SAT DEC 03 2016

NOTE "FAIR" INDICATES FEW OR NO CLOUDS BELOW 12,000 FEET
WITH NO SIGNIFICANT WEATHER AND/OR OBSTRUCTIONS TO VISIBILITY.

KYZ001>023-026-027-061>063-070>075-031800-
WESTERN AND SOUTH CENTRAL KENTUCKY

CITY           SKY/WX    TMP DP  RH WIND       PRES   REMARKS
PADUCAH        CLOUDY    44  29  55 E12       30.39R
HENDERSON      CLOUDY    43  28  56 E7        30.38S
OWENSBORO      CLOUDY    43  29  57 E8        30.38F
HOPKINSVILLE   NOT AVBL
BOWLING GREEN  CLOUDY    43  32  65 E3        30.38R
GLASGOW        NOT AVBL
$$

KYZ024-025-028>034-038-045-046-053-031800-
NORTH CENTRAL KENTUCKY

CITY           SKY/WX    TMP DP  RH WIND       PRES   REMARKS
LOUISVILLE/SDF CLOUDY    44  26  49 N6        30.37R
LOUISVILLE/LOU CLOUDY    43  29  57 CALM      30.37S
FORT KNOX      CLOUDY    42  28  55 N5        30.34S
$$

KYZ035>037-039>044-047>052-055>060-089>105-031800-
NORTHEAST KENTUCKY

CITY           SKY/WX    TMP DP  RH WIND       PRES   REMARKS
LEXINGTON      CLOUDY    42  28  57 NE6       30.34F
COVINGTON      CLOUDY    40  31  70 CALM      30.34S
FRANKFORT      CLOUDY    43  26  51 N5        30.34F
$$

KYZ054-064>069-076>088-106>120-031800-
SOUTHEAST KENTUCKY

CITY           SKY/WX    TMP DP  RH WIND       PRES   REMARKS
JACKSON        CLOUDY    40  29  64 CALM      30.31F
LONDON         CLOUDY    40  28  62 E3        30.32F
SOMERSET       CLOUDY    41  30  65 E6        30.35S
MIDDLESBORO    CLOUDY    40  30  67 CALM      30.32F
MONTICELLO     PTSUNNY   41  30  65 VRB6      30.36R
$$





USA.gov is the U.S. government's official web portal to all federal, state and local government web resources and services.